SCP
0 0 0 0 0 0 0 0 0 0 0 0 0 0 0 0 0 0 0 0 0 0 0 0 0 0 0 0 0 0 0 0 0 0 0 0 0 0 0 0 0 0 0 0
0 0 0 0 0 0 0 0 0 0 0 0 0 0 0 0 0 0 0 0 0 0 0 0 0 0 0 0 0 0 0 0 0 0 0 0 0 0 0 0 0 0 0 0
0 0 0 0 0 0 0 0 0 0 0 0 0 0 0 0 0 0 0 0 0 0 0 0 0 0 0 0 0 0 0 0 0 0 0 0 0 0 0 0 0 0 0 0
0 0 0 0 0 0 0 0 0 0 0 0 0 0 0 0 0 0 0 0 0 0 0 0 0 0 0 0 0 0 0 0 0 0 0 0 0 0 0 0 0 0 0 0
0 0 0 0 0 0 0 0 0 0 0 0 0 0 0 0 0 0 0 0 0 0 0 0 0 0 -0 -0 -0 -0 -0 -0 0 0 0 0 0 0 0 0 0 0 0 0
0 0 0 0 0 0 0 0 0 0 0 0 0 0 0 0 0 0 0 0 0 0 0 -0 -0 -0 -0 -0 -0 -0 -0 -0 -0 0 0 0 0 0 0 0 0 0 0 0
0 0 0 0 0 0 0 0 0 0 0 0 0 0 0 0 0 0 0 0 -0 -0 -0 -0 -0 -0 -0 -0 -0 -0 -0 0 0 0 0 0 0 0 0 0 0 0 0 0
0 0 0 0 0 0 0 0 0 0 0 0 0 0 0 0 0 0 0 0 0 0 0 0 0 0 -0 -0 -0 -0 -0 0 0 0 0 0 0 0 0 0 0 0 0 0
0 0 0 0 0 0 0 0 0 0 0 0 0 0 0 0 0 0 0 0 0 0 0 0 0 0 0 0 -0 -0 0 0 0 0 0 0 0 0 0 0 0 0 0 0
0 0 0 0 0 0 0 0 0 0 0 0 0 0 0 0 0 0 0 0 0 0 0 0 0 0 0 0 0 0 0 0 0 0 0 0 0 0 0 0 0 0 0 0
0 0 0 0 0 0 0 0 0 0 0 0 0 0 0 0 0 0 0 0 0 0 0 0 0 0 0 0 0 0 0 0 0 0 0 0 0 0 0 0 0 0 0 0
0 0 0 0 0 0 0 0 0 0 0 0 0 0 0 0 0 0 0 0 0 0 0 0 0 0 0 0 0 0 0 0 0 0 0 0 0 0 0 0 0 0 0 0
0 0 0 0 0 0 0 0 0 0 0 0 0 0 0 0 0 0 0 0 0 0 0 0 0 0 0 0 0 0 0 0 0 0 0 0 0 0 0 0 0 0 0 0
0 0 0 0 0 0 0 0 0 0 0 0 0 0 0 0 0 0 0 0 0 -0 0 0 0 0 0 0 0 0 0 0 0 0 0 0 -0 0 0 0 0 0 0 0
0 0 0 0 0 0 0 0 0 0 0 0 0 0 0 0 0 0 0 0 0 0 0 0 0 0 0 0 0 0 0 0 0 0 0 0 0 0 0 0 0 0 -0 -0
0 0 0 0 0 0 0 0 0 0 0 0 0 -0 -0 0 0 0 -0 0 0 0 0 0 0 0 0 0 0 0 0 0 0 0 0 0 0 -0 -0 0 0 0 -0 -0
0 0 0 0 0 0 0 0 0 0 0 0 0 0 0 0 0 -0 -0 0 0 0 0 0 0 0 0 0 0 0 0 0 0 0 0 0 0 0 0 -0 0 -0 -0 -0
0 0 0 0 0 0 0 0 0 0 0 0 0 0 0 0 0 0 0 0 0 0 0 0 0 0 0 0 0 0 0 0 0 0 0 0 0 0 0 0 0 -0 0 -0
0 0 0 0 0 0 0 0 0 0 0 0 0 0 0 0 0 0 0 0 0 0 0 0 0 0 0 0 0 0 0 0 0 0 0 0 0 0 0 0 0 -0 -0 -0
0 0 0 0 0 0 0 0 0 0 0 0 0 0 0 0 0 0 0 -0 -0 0 0 0 0 0 0 0 0 0 0 0 0 0 0 0 0 0 0 0 0 0 0 0
0 0 0 0 0 0 0 0 0 0 0 0 0 0 0 0 0 0 0 0 0 0 0 0 0 0 0 0 0 0 0 0 0 0 0 0 0 0 0 0 0 0 0 0
0 0 0 0 0 0 0 0 0 0 0 0 0 0 0 -0 0 0 0 0 0 0 0 0 0 0 0 0 0 0 0 0 0 0 0 0 0 0 0 0 0 0 0 0
0 0 0 0 0 0 0 0 0 0 0 0 0 0 0 0 0 0 0 0 0 0 0 0 0 0 0 0 0 0 0 0 0 0 0 0 0 0 0 0 0 0 0 0
0 0 0 0 0 0 0 0 0 0 0 0 0 0 0 0 0 0 0 0 0 0 0 0 0 0 0 0 0 0 0 0 0 0 0 0 0 0 0 0 0 0 0 0
0 0 0 0 0 0 0 0 0 0 0 0 0 0 0 0 0 0 0 0 0 0 0 0 0 0 0 0 0 0 0 0 0 0 0 0 0 0 0 0 0 0 0 0
0 0 -0 -0 0 0 0 0 0 0 0 0 0 0 0 0 0 0 0 0 0 0 0 0 0 0 0 0 0 0 0 0 0 0 0 0 0 0 0 0 0 0 0 0
0 -0 -0 -0 0 0 0 0 0 0 0 0 0 0 0 0 0 0 0 0 0 0 0 0 0 0 0 0 0 0 0 0 0 0 0 0 0 0 0 0 0 0 0 0
Wind_Speed_500mb
15 11 10 11 8 4 8 3 10 14 31 33 27 28 26 22 20 20 21 22 25 26 29 32 36 41 45 49 54 60 66 73 78 83 88 90 90 91 89 84 83 85 83 83
9 12 7 9 10 5 5 8 7 24 24 20 25 23 21 16 16 17 18 21 25 28 31 36 42 46 51 58 64 70 77 84 88 92 96 99 98 96 91 84 82 84 90 91
7 7 5 8 8 7 3 5 15 17 15 37 26 22 16 12 11 15 18 21 24 27 31 32 36 44 51 56 61 67 71 75 81 89 94 97 102 103 99 91 89 91 91 93
6 4 9 9 11 11 9 5 6 17 31 33 25 14 11 8 5 12 17 15 17 19 22 29 39 49 58 65 69 73 72 71 71 72 78 83 89 96 103 104 104 106 105 101
6 5 5 2 9 9 4 5 8 25 29 24 16 11 11 15 9 7 10 9 11 15 23 34 44 53 65 64 61 54 58 63 70 71 77 81 88 92 95 97 97 97 103 113
6 7 10 3 17 11 6 5 29 26 30 28 21 9 5 8 11 7 9 6 5 13 21 31 42 53 58 60 57 52 62 72 74 76 81 87 89 94 99 94 97 99 99 92
6 3 3 6 13 14 7 5 43 37 34 31 15 1 5 6 9 13 9 5 11 20 24 32 39 44 55 61 51 58 67 74 78 87 84 89 93 91 94 95 95 98 100 99
4 4 6 17 14 9 3 10 33 37 33 30 17 10 6 8 10 10 8 10 14 18 26 37 43 49 56 59 64 65 68 83 89 92 93 96 93 92 91 93 97 99 98 102
7 2 2 17 3 11 9 7 18 32 33 28 21 14 12 13 15 15 14 13 13 22 34 39 45 52 56 59 62 72 75 80 86 98 99 99 94 90 90 91 94 99 95 97
6 6 5 10 13 9 11 12 16 25 28 29 20 15 13 15 17 14 11 9 15 27 37 42 43 50 58 65 66 76 87 88 86 109 99 103 95 88 79 81 94 98 93 92
1 5 7 17 23 18 19 20 20 25 27 24 20 15 14 15 15 15 15 17 21 32 39 38 50 61 62 67 69 72 85 90 84 87 97 100 106 96 70 68 74 73 75 74
3 11 5 3 5 20 29 27 23 24 25 23 17 13 13 12 12 13 13 17 26 34 37 44 46 53 53 51 51 50 62 75 67 75 84 110 106 107 75 55 45 40 47 58
2 6 19 6 9 10 16 25 24 22 21 16 14 13 11 10 13 17 19 25 30 37 41 42 47 51 44 56 55 44 52 62 61 60 79 85 101 107 111 78 53 38 43 47
15 5 2 6 3 6 9 13 19 21 22 21 20 18 16 15 16 22 24 29 33 37 41 42 46 43 43 58 54 53 44 48 58 53 66 61 89 94 105 99 79 64 51 41
14 12 5 5 3 7 11 13 23 27 25 28 26 25 21 20 21 23 27 30 32 39 40 39 36 41 40 48 42 50 42 48 52 53 52 54 59 81 67 98 92 92 84 69
18 18 13 8 6 4 8 11 21 25 20 23 27 27 25 27 28 29 32 31 33 38 36 42 37 36 41 40 37 40 41 48 57 51 46 50 43 51 71 55 72 90 96 95
25 18 17 9 5 2 7 8 10 12 11 14 16 18 20 27 30 32 27 28 35 34 40 32 28 33 35 37 39 42 40 45 51 53 30 40 43 31 51 53 55 47 79 86
19 10 11 10 6 2 2 2 3 9 13 12 12 17 21 28 32 29 31 31 33 33 28 27 29 30 32 33 38 42 44 46 45 42 45 46 43 45 27 36 30 32 44 51
15 11 11 14 7 5 8 6 4 1 7 13 19 23 25 28 31 28 27 35 36 37 28 26 27 27 30 32 37 39 41 42 47 40 40 39 41 44 47 38 33 23 26 31
8 10 18 13 9 7 9 7 7 7 3 10 16 20 21 20 21 27 31 35 33 32 27 31 32 32 32 34 37 40 40 40 42 43 37 35 31 33 31 35 37 32 28 30
9 15 15 12 9 8 10 9 9 10 11 13 15 17 22 26 26 28 31 35 33 25 29 35 32 35 41 44 42 41 38 39 42 42 38 42 36 30 30 27 25 24 24 24
14 15 13 12 9 9 11 9 9 5 7 13 17 21 25 29 29 31 34 38 21 18 27 31 37 40 42 47 47 44 44 41 40 34 32 37 32 27 25 26 26 25 24 23
15 16 9 5 6 10 8 5 6 10 14 19 24 28 32 34 36 39 38 32 30 32 42 43 45 45 46 46 42 42 41 34 32 28 33 31 28 24 21 18 18 17 17 18
22 16 7 8 9 9 10 10 17 22 26 31 34 36 38 38 41 43 44 39 40 42 41 41 44 36 37 36 39 41 34 26 22 25 26 26 25 22 19 17 15 15 15 16
23 18 12 11 13 11 16 20 28 32 37 41 34 30 29 34 40 33 23 25 28 29 30 29 36 36 33 36 35 34 25 17 22 24 24 25 20 16 14 13 13 15 17 19
20 18 16 17 20 22 25 30 38 40 36 22 17 19 23 20 17 18 22 22 22 22 26 31 39 42 36 32 30 30 28 26 24 18 19 18 12 14 17 15 15 16 16 18
19 18 19 21 21 23 30 35 37 27 18 16 23 19 19 17 16 17 21 24 29 31 33 37 40 47 31 29 32 35 34 29 28 25 21 19 20 21 22 24 27 30 32 32
Wind_Direction_500mb
75 85 91 85 51 335 229 246 241 158 174 168 156 142 127 114 100 80 59 39 22 11 0 352 345 340 334 329 325 318 311 306 302 297 296 295 296 294 292 290 287 288 288 287
84 64 115 96 56 80 68 141 69 153 150 158 149 139 134 116 91 63 42 21 11 4 356 349 344 338 332 326 322 318 311 308 304 298 293 292 291 291 290 289 286 283 282 283
137 33 154 220 359 303 160 204 161 174 165 155 157 158 154 138 95 49 24 13 13 9 3 357 351 347 344 336 329 324 320 316 310 300 294 290 287 288 287 286 283 281 280 279
106 120 224 20 320 238 115 104 181 117 145 157 160 166 171 167 105 22 5 8 7 7 2 355 351 347 341 335 329 328 327 326 326 319 309 303 298 293 291 290 286 281 277 275
155 182 335 139 184 183 240 129 161 141 145 142 143 149 225 221 215 336 333 336 350 358 6 3 354 350 347 348 347 334 328 323 323 320 314 310 306 303 299 296 290 284 280 278
161 175 203 153 182 221 205 176 181 171 166 162 158 217 119 192 209 267 254 285 322 2 356 352 350 351 357 351 343 332 329 329 328 321 314 309 304 299 297 293 291 291 286 277
152 156 249 233 150 158 221 88 179 187 184 179 197 205 155 204 232 234 251 297 353 349 345 348 346 344 352 358 342 335 340 338 331 339 330 321 311 305 299 293 289 286 288 287
150 177 216 158 134 204 72 144 185 191 191 193 183 189 220 250 258 258 277 314 321 326 339 343 336 328 335 341 348 351 349 347 346 340 337 330 320 310 302 297 294 288 286 287
224 150 7 179 105 201 180 170 203 197 201 196 198 213 231 245 252 263 274 286 302 325 333 336 334 331 329 335 333 333 334 335 346 344 340 337 329 320 309 300 291 286 281 280
208 164 178 198 232 231 215 220 224 210 208 201 207 219 237 249 252 262 260 262 304 310 326 326 328 327 328 324 327 321 320 324 327 341 339 347 339 326 308 302 294 281 277 279
186 252 272 240 233 234 233 226 212 206 204 209 216 227 246 255 260 245 259 287 296 313 319 318 321 326 324 324 315 319 325 326 332 343 349 348 347 338 326 303 298 286 279 280
270 185 189 150 223 240 243 241 224 208 207 209 217 235 265 279 256 263 279 287 304 314 316 320 328 328 333 337 334 320 325 329 332 345 349 359 355 354 358 341 314 308 294 282
179 214 214 270 298 293 252 239 226 217 215 215 224 237 259 263 253 274 288 307 316 314 319 321 329 325 337 341 339 336 332 336 327 341 343 1 7 5 2 3 20 13 346 330
209 162 130 309 236 306 287 263 231 219 223 222 230 240 251 259 273 285 303 316 315 317 325 327 325 329 331 343 341 345 334 342 328 326 339 340 6 12 11 10 13 38 38 31
180 163 151 152 54 346 310 266 229 221 232 230 237 245 259 273 284 289 306 315 314 321 333 336 331 334 340 339 347 341 346 342 337 339 349 339 339 0 9 20 22 25 35 47
173 169 182 188 199 294 310 282 229 231 243 240 242 250 265 279 286 289 303 308 318 323 331 332 319 330 344 341 343 341 339 348 347 354 10 359 356 11 22 15 26 31 34 37
167 185 205 210 210 334 297 282 243 233 224 246 256 267 273 280 284 293 297 309 318 323 330 330 332 339 341 344 345 343 340 349 358 1 4 5 2 347 25 31 35 40 47 40
192 192 186 175 168 213 62 33 289 252 249 257 270 277 273 273 282 292 301 309 313 326 331 321 325 334 334 333 336 341 343 343 349 356 6 21 10 7 343 8 13 35 45 47
203 226 204 187 204 184 147 131 110 230 271 258 263 271 285 292 295 297 295 305 310 319 324 319 320 324 328 321 328 333 339 349 350 344 348 354 15 22 21 22 8 7 11 34
225 199 174 191 216 195 182 192 225 227 280 303 286 283 292 303 294 296 300 302 306 315 313 312 316 318 317 317 320 325 331 334 343 350 345 339 347 4 11 18 22 21 17 20
194 184 193 210 234 217 215 235 267 291 261 295 297 289 292 300 306 309 307 308 326 316 303 307 310 319 320 320 322 328 326 328 332 337 345 344 341 346 353 0 9 16 20 24
207 198 209 239 263 220 223 252 284 284 283 296 299 296 297 304 308 306 308 313 327 313 312 310 310 314 314 309 309 313 318 319 327 330 339 341 342 348 352 355 357 1 10 16
180 177 205 245 179 182 205 224 261 280 292 299 301 300 299 299 301 303 308 306 300 297 306 305 308 313 314 327 320 312 315 306 318 327 338 339 343 345 350 359 6 9 11 9
175 184 205 215 216 229 244 265 284 290 296 305 304 305 291 283 288 296 305 307 300 299 304 303 315 324 323 327 330 328 325 318 316 329 331 335 337 340 342 352 1 8 7 4
200 203 230 259 243 256 286 285 289 299 305 306 312 314 303 287 290 303 314 323 321 319 321 330 328 325 320 319 325 330 330 315 320 323 326 335 345 354 355 347 339 342 345 348
198 224 247 248 255 272 286 300 304 311 312 306 319 329 338 324 318 322 327 327 330 331 328 321 331 330 317 315 319 324 322 309 311 310 314 315 325 339 341 330 318 313 313 318
217 226 233 248 264 289 303 308 312 329 312 312 312 295 313 324 314 303 302 307 314 316 316 321 320 328 309 301 306 314 315 304 299 293 287 280 287 295 300 304 304 301 297 294
Wind_Speed_850mb
15 11 10 11 8 4 8 3 10 14 31 33 27 28 26 22 20 20 21 22 25 26 29 32 36 41 45 49 54 60 66 73 78 83 88 90 90 91 89 84 83 85 83 83
9 12 7 9 10 5 5 8 7 24 24 20 25 23 21 16 16 17 18 21 25 28 31 36 42 46 51 58 64 70 77 84 88 92 96 99 98 96 91 84 82 84 90 91
7 7 5 8 8 7 3 5 15 17 15 37 26 22 16 12 11 15 18 21 24 27 31 32 36 44 51 56 61 67 71 75 81 89 94 97 102 103 99 91 89 91 91 93
6 4 9 9 11 11 9 5 6 17 31 33 25 14 11 8 5 12 17 15 17 19 22 29 39 49 58 65 69 73 72 71 71 72 78 83 89 96 103 104 104 106 105 101
6 5 5 2 9 9 4 5 8 25 29 24 16 11 11 15 9 7 10 9 11 15 23 34 44 53 65 64 61 54 58 63 70 71 77 81 88 92 95 97 97 97 103 113
6 7 10 3 17 11 6 5 29 26 30 28 21 9 5 8 11 7 9 6 5 13 21 31 42 53 58 60 57 52 62 72 74 76 81 87 89 94 99 94 97 99 99 92
6 3 3 6 13 14 7 5 43 37 34 31 15 1 5 6 9 13 9 5 11 20 24 32 39 44 55 61 51 58 67 74 78 87 84 89 93 91 94 95 95 98 100 99
4 4 6 17 14 9 3 10 33 37 33 30 17 10 6 8 10 10 8 10 14 18 26 37 43 49 56 59 64 65 68 83 89 92 93 96 93 92 91 93 97 99 98 102
7 2 2 17 3 11 9 7 18 32 33 28 21 14 12 13 15 15 14 13 13 22 34 39 45 52 56 59 62 72 75 80 86 98 99 99 94 90 90 91 94 99 95 97
6 6 5 10 13 9 11 12 16 25 28 29 20 15 13 15 17 14 11 9 15 27 37 42 43 50 58 65 66 76 87 88 86 109 99 103 95 88 79 81 94 98 93 92
1 5 7 17 23 18 19 20 20 25 27 24 20 15 14 15 15 15 15 17 21 32 39 38 50 61 62 67 69 72 85 90 84 87 97 100 106 96 70 68 74 73 75 74
3 11 5 3 5 20 29 27 23 24 25 23 17 13 13 12 12 13 13 17 26 34 37 44 46 53 53 51 51 50 62 75 67 75 84 110 106 107 75 55 45 40 47 58
2 6 19 6 9 10 16 25 24 22 21 16 14 13 11 10 13 17 19 25 30 37 41 42 47 51 44 56 55 44 52 62 61 60 79 85 101 107 111 78 53 38 43 47
15 5 2 6 3 6 9 13 19 21 22 21 20 18 16 15 16 22 24 29 33 37 41 42 46 43 43 58 54 53 44 48 58 53 66 61 89 94 105 99 79 64 51 41
14 12 5 5 3 7 11 13 23 27 25 28 26 25 21 20 21 23 27 30 32 39 40 39 36 41 40 48 42 50 42 48 52 53 52 54 59 81 67 98 92 92 84 69
18 18 13 8 6 4 8 11 21 25 20 23 27 27 25 27 28 29 32 31 33 38 36 42 37 36 41 40 37 40 41 48 57 51 46 50 43 51 71 55 72 90 96 95
25 18 17 9 5 2 7 8 10 12 11 14 16 18 20 27 30 32 27 28 35 34 40 32 28 33 35 37 39 42 40 45 51 53 30 40 43 31 51 53 55 47 79 86
19 10 11 10 6 2 2 2 3 9 13 12 12 17 21 28 32 29 31 31 33 33 28 27 29 30 32 33 38 42 44 46 45 42 45 46 43 45 27 36 30 32 44 51
15 11 11 14 7 5 8 6 4 1 7 13 19 23 25 28 31 28 27 35 36 37 28 26 27 27 30 32 37 39 41 42 47 40 40 39 41 44 47 38 33 23 26 31
8 10 18 13 9 7 9 7 7 7 3 10 16 20 21 20 21 27 31 35 33 32 27 31 32 32 32 34 37 40 40 40 42 43 37 35 31 33 31 35 37 32 28 30
9 15 15 12 9 8 10 9 9 10 11 13 15 17 22 26 26 28 31 35 33 25 29 35 32 35 41 44 42 41 38 39 42 42 38 42 36 30 30 27 25 24 24 24
14 15 13 12 9 9 11 9 9 5 7 13 17 21 25 29 29 31 34 38 21 18 27 31 37 40 42 47 47 44 44 41 40 34 32 37 32 27 25 26 26 25 24 23
15 16 9 5 6 10 8 5 6 10 14 19 24 28 32 34 36 39 38 32 30 32 42 43 45 45 46 46 42 42 41 34 32 28 33 31 28 24 21 18 18 17 17 18
22 16 7 8 9 9 10 10 17 22 26 31 34 36 38 38 41 43 44 39 40 42 41 41 44 36 37 36 39 41 34 26 22 25 26 26 25 22 19 17 15 15 15 16
23 18 12 11 13 11 16 20 28 32 37 41 34 30 29 34 40 33 23 25 28 29 30 29 36 36 33 36 35 34 25 17 22 24 24 25 20 16 14 13 13 15 17 19
20 18 16 17 20 22 25 30 38 40 36 22 17 19 23 20 17 18 22 22 22 22 26 31 39 42 36 32 30 30 28 26 24 18 19 18 12 14 17 15 15 16 16 18
19 18 19 21 21 23 30 35 37 27 18 16 23 19 19 17 16 17 21 24 29 31 33 37 40 47 31 29 32 35 34 29 28 25 21 19 20 21 22 24 27 30 32 32
Wind_Direction_850mb
75 85 91 85 51 335 229 246 241 158 174 168 156 142 127 114 100 80 59 39 22 11 0 352 345 340 334 329 325 318 311 306 302 297 296 295 296 294 292 290 287 288 288 287
84 64 115 96 56 80 68 141 69 153 150 158 149 139 134 116 91 63 42 21 11 4 356 349 344 338 332 326 322 318 311 308 304 298 293 292 291 291 290 289 286 283 282 283
137 33 154 220 359 303 160 204 161 174 165 155 157 158 154 138 95 49 24 13 13 9 3 357 351 347 344 336 329 324 320 316 310 300 294 290 287 288 287 286 283 281 280 279
106 120 224 20 320 238 115 104 181 117 145 157 160 166 171 167 105 22 5 8 7 7 2 355 351 347 341 335 329 328 327 326 326 319 309 303 298 293 291 290 286 281 277 275
155 182 335 139 184 183 240 129 161 141 145 142 143 149 225 221 215 336 333 336 350 358 6 3 354 350 347 348 347 334 328 323 323 320 314 310 306 303 299 296 290 284 280 278
161 175 203 153 182 221 205 176 181 171 166 162 158 217 119 192 209 267 254 285 322 2 356 352 350 351 357 351 343 332 329 329 328 321 314 309 304 299 297 293 291 291 286 277
152 156 249 233 150 158 221 88 179 187 184 179 197 205 155 204 232 234 251 297 353 349 345 348 346 344 352 358 342 335 340 338 331 339 330 321 311 305 299 293 289 286 288 287
150 177 216 158 134 204 72 144 185 191 191 193 183 189 220 250 258 258 277 314 321 326 339 343 336 328 335 341 348 351 349 347 346 340 337 330 320 310 302 297 294 288 286 287
224 150 7 179 105 201 180 170 203 197 201 196 198 213 231 245 252 263 274 286 302 325 333 336 334 331 329 335 333 333 334 335 346 344 340 337 329 320 309 300 291 286 281 280
208 164 178 198 232 231 215 220 224 210 208 201 207 219 237 249 252 262 260 262 304 310 326 326 328 327 328 324 327 321 320 324 327 341 339 347 339 326 308 302 294 281 277 279
186 252 272 240 233 234 233 226 212 206 204 209 216 227 246 255 260 245 259 287 296 313 319 318 321 326 324 324 315 319 325 326 332 343 349 348 347 338 326 303 298 286 279 280
270 185 189 150 223 240 243 241 224 208 207 209 217 235 265 279 256 263 279 287 304 314 316 320 328 328 333 337 334 320 325 329 332 345 349 359 355 354 358 341 314 308 294 282
179 214 214 270 298 293 252 239 226 217 215 215 224 237 259 263 253 274 288 307 316 314 319 321 329 325 337 341 339 336 332 336 327 341 343 1 7 5 2 3 20 13 346 330
209 162 130 309 236 306 287 263 231 219 223 222 230 240 251 259 273 285 303 316 315 317 325 327 325 329 331 343 341 345 334 342 328 326 339 340 6 12 11 10 13 38 38 31
180 163 151 152 54 346 310 266 229 221 232 230 237 245 259 273 284 289 306 315 314 321 333 336 331 334 340 339 347 341 346 342 337 339 349 339 339 0 9 20 22 25 35 47
173 169 182 188 199 294 310 282 229 231 243 240 242 250 265 279 286 289 303 308 318 323 331 332 319 330 344 341 343 341 339 348 347 354 10 359 356 11 22 15 26 31 34 37
167 185 205 210 210 334 297 282 243 233 224 246 256 267 273 280 284 293 297 309 318 323 330 330 332 339 341 344 345 343 340 349 358 1 4 5 2 347 25 31 35 40 47 40
192 192 186 175 168 213 62 33 289 252 249 257 270 277 273 273 282 292 301 309 313 326 331 321 325 334 334 333 336 341 343 343 349 356 6 21 10 7 343 8 13 35 45 47
203 226 204 187 204 184 147 131 110 230 271 258 263 271 285 292 295 297 295 305 310 319 324 319 320 324 328 321 328 333 339 349 350 344 348 354 15 22 21 22 8 7 11 34
225 199 174 191 216 195 182 192 225 227 280 303 286 283 292 303 294 296 300 302 306 315 313 312 316 318 317 317 320 325 331 334 343 350 345 339 347 4 11 18 22 21 17 20
194 184 193 210 234 217 215 235 267 291 261 295 297 289 292 300 306 309 307 308 326 316 303 307 310 319 320 320 322 328 326 328 332 337 345 344 341 346 353 0 9 16 20 24
207 198 209 239 263 220 223 252 284 284 283 296 299 296 297 304 308 306 308 313 327 313 312 310 310 314 314 309 309 313 318 319 327 330 339 341 342 348 352 355 357 1 10 16
180 177 205 245 179 182 205 224 261 280 292 299 301 300 299 299 301 303 308 306 300 297 306 305 308 313 314 327 320 312 315 306 318 327 338 339 343 345 350 359 6 9 11 9
175 184 205 215 216 229 244 265 284 290 296 305 304 305 291 283 288 296 305 307 300 299 304 303 315 324 323 327 330 328 325 318 316 329 331 335 337 340 342 352 1 8 7 4
200 203 230 259 243 256 286 285 289 299 305 306 312 314 303 287 290 303 314 323 321 319 321 330 328 325 320 319 325 330 330 315 320 323 326 335 345 354 355 347 339 342 345 348
198 224 247 248 255 272 286 300 304 311 312 306 319 329 338 324 318 322 327 327 330 331 328 321 331 330 317 315 319 324 322 309 311 310 314 315 325 339 341 330 318 313 313 318
217 226 233 248 264 289 303 308 312 329 312 312 312 295 313 324 314 303 302 307 314 316 316 321 320 328 309 301 306 314 315 304 299 293 287 280 287 295 300 304 304 301 297 294